This demonstration page uses our WeatherBlox Daily Observations layout. Learn more.

Left ArrowRight Arrow

Hourly Observations for December 22, 2021

Temp ( °F °C ) Dew Point ( °F °C ) Humidity (%) Winds ( mph kmh ) Pressure ( in mb ) Visibility ( mi km ) Precip ( " mm )
12:59 am 00:59 Cloudy 45 7.2 42 5.6 90 90 N 13 20 29.69 1006 10 16 0.00 0.00
1:59 am 01:59 Cloudy 43 6.1 42 5.6 97 97 NNW 14 22 29.67 1005 9 14 0.00 0.00
2:20 am 02:20 Cloudy 43 6.1 42 5.6 97 97 NNW 15 24 29.66 1004 7 11 0.00 0.00
2:49 am 02:49 Cloudy with Mist and Fog 42 5.6 42 5.6 100 100 NNW 12 19 29.65 1004 5 8 0.00 0.00
2:59 am 02:59 Cloudy with Mist and Fog 42 5.6 42 5.6 100 100 NNW 14 22 29.64 1004 5 8 0.00 0.00
3:59 am 03:59 Cloudy with Mist and Fog 41 5 41 5 100 100 NW 12 19 29.64 1004 3 5 0.00 0.00
4:59 am 04:59 Cloudy with Mist and Fog 41 5 41 5 100 100 NW 12 19 29.63 1004 2 3 0.00 0.00
5:44 am 05:44 Cloudy with Mist and Fog 41 5 41 5 100 100 NW 9 15 29.66 1004 2 3 0.00 0.00
5:57 am 05:57 Cloudy with Mist and Fog 43 6 43 6 100 100 NW 12 19 29.66 1004 5 8 0.00 0.00
5:59 am 05:59 Cloudy with Mist and Fog 42 5.6 42 5.6 100 100 NW 10 17 29.66 1005 5 8 0.00 0.00
6:16 am 06:16 Cloudy with Mist and Fog 42 5.6 42 5.6 100 100 WNW 9 15 29.68 1005 3 4 0.00 0.00
6:59 am 06:59 Cloudy with Light Rain 42 5.6 42 5.6 100 100 NW 5 7 29.66 1005 3 5 0.01 0.25
8:41 am 08:41 Cloudy 44 6.7 44 6.7 100 100 NW 14 22 29.69 1005 7 11 0.00 0.00
8:59 am 08:59 Cloudy 44 6.7 44 6.7 100 100 NNW 10 17 29.68 1005 7 11 0.00 0.00
9:59 am 09:59 Cloudy 46 7.8 44 6.7 93 93 NW 12 19 29.72 1007 8 13 0.00 0.00
10:08 am 10:08 Mostly Cloudy 46 7.8 45 7.2 96 96 NW 10 17 29.73 1007 9 14 0.00 0.00
10:42 am 10:42 Mostly Cloudy 47 8.3 42 5.6 83 83 NNW 12 19 29.74 1007 10 16 0.00 0.00
10:59 am 10:59 Mostly Cloudy 47 8.3 41 5 80 80 NNW 14 22 29.74 1007 10 16 0.00 0.00
11:59 am 11:59 Sunny 47 8.3 41 5 80 80 NW 8 13 29.75 1007 10 16 0.00 0.00
12:59 pm 12:59 Partly Cloudy 47 8.3 41 5 80 80 W 8 13 29.75 1007 10 16 0.00 0.00
1:59 pm 13:59 Sunny 50 10 38 3.3 63 63 WNW 10 17 29.75 1008 10 16 0.00 0.00
2:59 pm 14:59 Sunny 52 11.1 38 3.3 59 59 WNW 12 19 29.77 1008 10 16 0.00 0.00
3:59 pm 15:59 Sunny 51 10.6 38 3.3 61 61 W 7 11 29.80 1009 10 16 0.00 0.00
4:59 pm 16:59 Clear 47 8.3 39 3.9 74 74 Calm 29.81 1010 10 16 0.00 0.00
5:59 pm 17:59 Clear 41 5 40 4.4 96 96 Calm 29.84 1011 10 16 0.00 0.00
6:59 pm 18:59 Clear 40 4.4 39 3.9 97 97 Calm 29.88 1012 10 16 0.00 0.00
7:59 pm 19:59 Clear 44 6.7 39 3.9 83 83 NNE 10 17 29.94 1014 7 11 0.00 0.00
8:59 pm 20:59 Clear 46 7.8 30 -1.1 54 54 N 13 20 29.98 1015 10 16 0.00 0.00
9:59 pm 21:59 Clear 45 7.2 25 -3.9 46 46 N 13 20 30.02 1017 10 16 0.00 0.00
10:59 pm 22:59 Clear 43 6.1 25 -3.9 49 49 N 10 17 30.05 1018 10 16 0.00 0.00
11:59 pm 23:59 Clear 42 5.6 23 -5 47 47 N 13 20 30.07 1018 10 16 0.00 0.00

Powered by AerisWeather